Middlesboro, KY

11:07 AM CDT on August 19, 2017 (GMT -0500)
Middlesboro

Weather History for K1A6 - March, 2013

Change the Weather History Date:

Wednesday, March 6, 2013

  Actual Average (KLOZ) Record (KLOZ)
Temperature  
Mean Temperature 31 °F -  
Max Temperature 32 °F 53 °F 79 °F (1956)
Min Temperature 30 °F 34 °F -8 °F (1960)
Degree Days  
Heating Degree Days 34    
Moisture  
Dew Point 26 °F    
Average Humidity 81    
Maximum Humidity 89    
Minimum Humidity 69    
Precipitation  
Precipitation 0.01 in - - ()
Sea Level Pressure  
Sea Level Pressure 30.06 in    
Wind  
Wind Speed 8 mph (NW)    
Max Wind Speed 15 mph    
Max Gust Speed 25 mph    
Visibility 7 miles    
Events Snow    
Averages and records for this station are not official NWS values.
T = Trace of Precipitation, MM = Missing Value Source: NWS Daily Summary

Daily Weather History Graph

Daily Weather History Graph

Search for Another Location

Airport or City:

Trip Planner

Search our weather history database for the weather conditions in past years. The results will help you decide how hot, cold, wet, or windy it might be!

Date:

Astronomy

Mar. 06, 2013 Rise Set
Actual Time 5:58 AM CST 5:34 PM CST
Civil Twilight 5:32 AM CST 6:00 PM CST
Nautical Twilight 5:02 AM CST 6:30 PM CST
Astronomical Twilight 4:32 AM CST 7:00 PM CST
Moon 1:59 AM CST (3/6) 12:21 PM CST (3/6)
Length of Visible Light 12h 27m
Length of Day
11h 36m
Waning Crescent, 29% of the Moon is Illuminated
Mar 6
Waning Crescent
Mar 11
New
Mar 19
First Quarter
Mar 27
Full
Apr 2
Last Quarter

Hourly Weather History & Observations

Time (CST) Temp. Windchill Dew Point Humidity Pressure Visibility Wind Dir Wind Speed Gust Speed Precip Events Conditions
12:15 AM 32.0 °F 24.2 °F 23.0 °F 69% 29.82 in 10.0 mi NW 9.2 mph - N/A   Overcast
12:35 AM 32.0 °F 24.2 °F 23.5 °F 71% 29.83 in 10.0 mi NW 9.2 mph 18.4 mph N/A   Overcast
12:55 AM 31.5 °F 22.9 °F 22.3 °F 69% 29.84 in 7.0 mi NW 10.4 mph 21.9 mph N/A   Overcast
1:15 AM 31.1 °F 23.7 °F 22.3 °F 70% 29.84 in 10.0 mi NW 8.1 mph - N/A   Overcast
1:35 AM 30.9 °F 22.2 °F 21.9 °F 69% 29.84 in 7.0 mi WNW 10.4 mph 18.4 mph N/A Snow Light Snow
1:55 AM 30.2 °F 21.9 °F 23.0 °F 75% 29.84 in 5.0 mi WNW 9.2 mph - N/A Snow Light Snow
2:15 AM 30.2 °F 24.3 °F 23.0 °F 75% 29.83 in 5.0 mi WNW 5.8 mph - N/A Snow Light Snow
2:35 AM 30.2 °F 25.4 °F 23.0 °F 75% 29.82 in 5.0 mi WSW 4.6 mph - N/A Snow Light Snow
2:55 AM 30.2 °F 19.3 °F 23.0 °F 75% 29.83 in 5.0 mi NW 15.0 mph 23.0 mph N/A Snow Light Snow
3:15 AM 30.2 °F 19.8 °F 23.9 °F 77% 29.83 in 4.0 mi WNW 13.8 mph 21.9 mph N/A Snow Light Snow
3:35 AM 30.2 °F 24.3 °F 24.4 °F 79% 29.83 in 4.0 mi WNW 5.8 mph - N/A Snow Light Snow
3:55 AM 30.6 °F 22.4 °F 23.5 °F 75% 29.84 in 7.0 mi WNW 9.2 mph - N/A Snow Light Snow
4:15 AM 30.7 °F 24.1 °F 23.5 °F 75% 29.84 in 4.0 mi WSW 6.9 mph - N/A Snow Light Snow
4:35 AM 30.6 °F 24.7 °F 23.9 °F 76% 29.85 in 4.0 mi WNW 5.8 mph - N/A Snow Light Snow
4:55 AM 30.2 °F 26.7 °F 25.0 °F 81% 29.86 in 2.0 mi West 3.5 mph - N/A Snow Light Snow
5:15 AM 30.6 °F 25.8 °F 24.6 °F 79% 29.87 in 4.0 mi West 4.6 mph 16.1 mph N/A Snow Light Snow
5:35 AM 30.9 °F 24.3 °F 23.9 °F 75% 29.87 in 7.0 mi WNW 6.9 mph - N/A Snow Light Snow
5:55 AM 30.9 °F 23.5 °F 24.6 °F 77% 29.88 in 7.0 mi WNW 8.1 mph - N/A Snow Light Snow
6:15 AM 30.9 °F 21.7 °F 24.4 °F 77% 29.88 in 5.0 mi NW 11.5 mph 17.3 mph N/A Snow Light Snow
6:35 AM 31.1 °F 22.4 °F 23.9 °F 75% 29.90 in 7.0 mi WNW 10.4 mph 18.4 mph N/A   Overcast
6:55 AM 31.1 °F 21.4 °F 24.6 °F 77% 29.92 in 5.0 mi NW 12.7 mph 23.0 mph N/A Snow Light Snow
7:15 AM 31.1 °F 21.9 °F 25.0 °F 78% 29.93 in 3.0 mi WNW 11.5 mph 25.3 mph N/A Snow Light Snow
7:35 AM 31.1 °F 20.9 °F 24.8 °F 77% 29.94 in 1.8 mi WNW 13.8 mph 21.9 mph N/A Snow Light Snow
7:55 AM 31.1 °F 23.7 °F 25.7 °F 80% 29.96 in 1.5 mi WNW 8.1 mph 19.6 mph N/A Snow Light Snow
8:15 AM 31.1 °F 26.4 °F 25.9 °F 81% 29.97 in 2.0 mi NW 4.6 mph - N/A Snow Light Snow
8:35 AM 31.6 °F 24.4 °F 25.9 °F 79% 29.99 in 2.5 mi NW 8.1 mph 18.4 mph N/A Snow Light Snow
8:55 AM 31.8 °F 23.3 °F 25.3 °F 77% 30.00 in 10.0 mi NW 10.4 mph 19.6 mph N/A   Overcast
9:15 AM 31.8 °F 22.8 °F 25.9 °F 79% 30.02 in 3.0 mi NW 11.5 mph 20.7 mph N/A   Haze
9:35 AM 31.8 °F 24.6 °F 26.4 °F 80% 30.02 in 4.0 mi WNW 8.1 mph 17.3 mph N/A Snow Light Snow
9:55 AM 32.0 °F 24.8 °F 25.9 °F 78% 30.03 in 3.0 mi NW 8.1 mph 17.3 mph N/A Snow Light Snow
10:15 AM 32.0 °F 24.8 °F 26.2 °F 79% 30.05 in 4.0 mi WNW 8.1 mph - 0.01 in   Haze
10:35 AM 32.0 °F 23.6 °F 26.6 °F 80% 30.05 in 4.0 mi WNW 10.4 mph - 0.01 in Snow Light Snow
10:55 AM 32.0 °F 23.0 °F 26.2 °F 79% 30.07 in 4.0 mi NW 11.5 mph 21.9 mph 0.01 in Snow Light Snow
11:15 AM 32.0 °F 26.4 °F 26.6 °F 80% 30.07 in 3.0 mi NW 5.8 mph - N/A Snow Light Snow
11:35 AM 31.8 °F 25.4 °F 27.3 °F 83% 30.08 in 2.5 mi NNW 6.9 mph 16.1 mph N/A Snow Light Snow
11:55 AM 31.8 °F - 27.3 °F 83% 30.09 in 2.5 mi Calm Calm - N/A Snow Light Snow
12:15 PM 32.0 °F 25.6 °F 26.4 °F 80% 30.09 in 7.0 mi NW 6.9 mph 16.1 mph N/A   Overcast
12:35 PM 32.0 °F 25.6 °F 27.1 °F 82% 30.09 in 7.0 mi NW 6.9 mph - N/A   Overcast
12:55 PM 32.0 °F 24.8 °F 27.1 °F 82% 30.10 in 7.0 mi NW 8.1 mph - N/A   Overcast
1:15 PM 32.0 °F 24.8 °F 27.3 °F 83% 30.11 in 7.0 mi NNW 8.1 mph - N/A   Overcast
1:35 PM 32.0 °F 22.5 °F 26.8 °F 81% 30.12 in 7.0 mi NW 12.7 mph 24.2 mph N/A   Overcast
1:55 PM 31.8 °F 24.6 °F 27.0 °F 82% 30.13 in 10.0 mi NNW 8.1 mph 16.1 mph N/A   Overcast
2:15 PM 31.6 °F 24.4 °F 27.1 °F 83% 30.14 in 10.0 mi NW 8.1 mph - N/A   Overcast
2:35 PM 31.6 °F 23.1 °F 27.9 °F 86% 30.14 in 10.0 mi WNW 10.4 mph - N/A   Overcast
2:55 PM 31.6 °F 23.7 °F 27.5 °F 85% 30.15 in 10.0 mi WNW 9.2 mph - N/A   Overcast
3:15 PM 31.6 °F 24.4 °F 27.3 °F 84% 30.17 in 10.0 mi NNW 8.1 mph - N/A   Overcast
3:35 PM 31.8 °F 24.6 °F 27.5 °F 84% 30.17 in 10.0 mi WNW 8.1 mph - N/A   Overcast
3:55 PM 31.8 °F 26.2 °F 27.3 °F 83% 30.18 in 10.0 mi WNW 5.8 mph - N/A   Overcast
4:15 PM 31.8 °F 25.4 °F 27.5 °F 84% 30.19 in 7.0 mi NW 6.9 mph - N/A   Overcast
4:35 PM 31.8 °F 27.3 °F 27.7 °F 85% 30.20 in 7.0 mi NW 4.6 mph - N/A   Overcast
4:55 PM 31.8 °F 26.2 °F 27.5 °F 84% 30.20 in 7.0 mi NW 5.8 mph - N/A   Overcast
5:15 PM 31.8 °F 27.3 °F 27.7 °F 85% 30.21 in 7.0 mi NW 4.6 mph - N/A   Overcast
5:35 PM 31.8 °F 26.2 °F 27.7 °F 85% 30.22 in 10.0 mi WNW 5.8 mph - N/A   Overcast
5:55 PM 31.8 °F 24.6 °F 27.5 °F 84% 30.22 in 10.0 mi NW 8.1 mph - N/A   Overcast
6:15 PM 31.6 °F 28.3 °F 27.5 °F 85% 30.23 in 7.0 mi NNW 3.5 mph - N/A   Overcast
6:35 PM 31.6 °F 28.3 °F 27.7 °F 85% 30.23 in 7.0 mi North 3.5 mph - N/A   Overcast
6:55 PM 31.1 °F - 28.0 °F 88% 30.24 in 7.0 mi Calm Calm - N/A   Overcast
7:15 PM 31.1 °F 27.7 °F 28.2 °F 89% 30.24 in 7.0 mi NE 3.5 mph - N/A   Overcast
7:35 PM 31.1 °F 26.4 °F 28.2 °F 89% 30.24 in 7.0 mi North 4.6 mph - N/A   Overcast
7:55 PM 31.6 °F 27.0 °F 28.0 °F 87% 30.25 in 10.0 mi NW 4.6 mph - N/A   Overcast
8:15 PM 31.6 °F 25.1 °F 27.7 °F 85% 30.25 in 10.0 mi NNW 6.9 mph - N/A   Overcast
8:35 PM 31.6 °F 28.3 °F 28.0 °F 87% 30.25 in 10.0 mi North 3.5 mph - N/A   Overcast
8:55 PM 31.8 °F 27.3 °F 27.5 °F 84% 30.25 in 10.0 mi NNW 4.6 mph - N/A   Overcast
9:35 PM 31.6 °F - 27.5 °F 85% 30.26 in 10.0 mi Calm Calm - N/A   Overcast
9:55 PM 31.6 °F 28.3 °F 27.5 °F 85% 30.26 in 10.0 mi North 3.5 mph - N/A   Overcast
10:15 PM 31.5 °F 26.8 °F 27.7 °F 86% 30.26 in 10.0 mi NNW 4.6 mph - N/A   Overcast
10:35 PM 31.1 °F 26.4 °F 28.0 °F 88% 30.24 in 10.0 mi North 4.6 mph - N/A   Overcast
10:55 PM 31.1 °F 26.4 °F 28.0 °F 88% 30.24 in 10.0 mi North 4.6 mph - N/A   Overcast
11:15 PM 31.1 °F 25.4 °F 27.9 °F 88% 30.24 in 10.0 mi NNE 5.8 mph - N/A   Overcast
11:35 PM 31.1 °F 26.4 °F 28.0 °F 88% 30.23 in 10.0 mi NNE 4.6 mph - N/A   Overcast
11:55 PM 31.1 °F 27.7 °F 28.2 °F 89% 30.23 in 10.0 mi NNE 3.5 mph - N/A   Overcast